Погода в Гентинг-Хигхланде

Малайзия     3°25′28″N   101°47′36″E
темп.,
°C
ветер,
м/с
пор.,
м/с
влажн.,
%
обл.,
%
осадки,
мм/ч
давл.,
гПа
погр.,
м
8 марта, пн
пн823:00+21всв1195100 0.0 101323
02:00+20всв129599 0.1 101328
05:00+20всв129879 0.0 101147
08:00+20всв119866 0.0 101365
11:00+27всв126313 0.0 1014783
14:00+31св23397 0.0 10111920
17:00+30св23432 0.0 10081944
20:00+23зюз11756 0.0 100923
9 марта, вт
вт923:00+21всв118813 0.3 101323
02:00+20всв12947 0.3 101344
05:00+19всв129649 0.0 101144
08:00+19всв129232 0.0 101361
11:00+27св235581 0.0 1014809
14:00+30св243974 0.0 10111690
17:00+29ссв244446 0.0 10071730
20:00+23в016535 0.0 101024
10 марта, ср
ср1023:00+21в118154 0.1 101323
02:00+20всв118927 0.1 101227
05:00+19всв11920 0.0 101125
08:00+20всв11848 0.0 101333
11:00+28всв11518 0.0 10141089
14:00+30всв233954 0.0 10111917
17:00+30св234032 0.0 10081998
20:00+23зюз127632 0.0 101025
11 марта, чт
чт1123:00+21всв118742 0.2 101223
02:00+20всв119333 0.4 101228
05:00+20всв129547 0.0 101046
08:00+20всв229324 0.0 101273
11:00+28св22530 0.0 1012975
14:00+31св234443 0.0 10091941
17:00+30с0250100 0.1 10081583
20:00+22всв1193100 4.8 101025
12 марта, пт
пт1223:00+21в1194100 3.1 101224
02:00+20всв129589 3.1 101132
05:00+20всв229695 0.0 101062
08:00+20всв229698 0.0 101287
11:00+26св236967 0.0 1013607
14:00+31всв234554 0.0 10101820
17:00+30св2450100 0.0 10071872
20:00+23зюз008694 0.6 100924